Location: Biltmore Gardens
(41.6070°N, 83.4666°W)
Time: 13:43:47
(UTC+00:00)

Cosmos 2327 Rocket - Pass Details

Date: 14 July 2020
Orbit: 943 x 1009 km, 83.0° (Epoch: 04 August)

Event Time Altitude Azimuth Distance (km) Brightness Sun altitude
Exits shadow 02:57:30 19° 175° (S) 2,134 5.8 -16.5°
Maximum altitude 03:02:06 71° 94° (E) 1,005 4.4 -17.0°
Drops below altitude 10° 03:08:10 10° 12° (NNE) 2,676 7.4 -17.7°
Sets 03:10:40 0° 10° (N) 3,622 8.2 -18.0°
